EW6612 Weather Reports


time (UTC)temp
C
wind
direction
speed
KPH
gust
KPH
rain 1hr
cm
rain 24hr
cm
rain mn
cm
humidity
%
barometer
mb
20181216161347 15 327 8.0 16.1 0.00 0.33 0.30 73 1026.6
20181216160337 15 311 9.7 16.1 0.00 0.33 0.30 71 1026.5
20181216155337 15 304 9.7 19.3 0.00 0.33 0.30 69 1026.3
20181216154333 15 350 11.3 16.1 0.00 0.33 0.30 69 1026.2
20181216153338 16 317 9.7 24.1 0.00 0.33 0.30 68 1026.1
20181216152333 16 315 11.3 22.5 0.00 0.33 0.30 67 1025.9
20181216151333 16 298 9.7 19.3 0.00 0.33 0.30 71 1025.8
20181216150333 15 275 12.9 24.1 0.00 0.33 0.30 71 1025.8
20181216145333 16 308 14.5 25.7 0.00 0.33 0.30 70 1025.8
20181216144408 16 273 16.1 24.1 0.00 0.33 0.30 68 1025.7
20181216143331 16 342 14.5 24.1 0.00 0.33 0.30 69 1025.5
20181216142427 15 300 12.9 30.6 0.00 0.33 0.30 68 1025.5
20181216141331 16 304 14.5 27.4 0.00 0.33 0.30 71 1025.6
20181216140333 16 11 11.3 24.1 0.00 0.33 0.30 74 1025.6
20181216135327 16 306 14.5 25.7 0.00 0.33 0.30 76 1025.5
20181216134419 15 316 16.1 27.4 0.00 0.33 0.30 78 1025.5
20181216133402 15 310 12.9 25.7 0.00 0.33 0.30 79 1025.6
20181216132324 16 281 16.1 29.0 0.00 0.33 0.30 77 1025.5
20181216131322 16 269 16.1 37.0 0.00 0.33 0.30 75 1025.3
20181216130409 16 270 11.3 22.5 0.00 0.33 0.30 76 1025.5
20181216125355 16 220 11.3 25.7 0.00 0.33 0.30 76 1025.4
20181216124316 15 259 16.1 30.6 0.00 0.33 0.30 75 1025.4
20181216123315 15 278 11.3 27.4 0.00 0.33 0.30 77 1025.4
20181216122401 15 291 11.3 27.4 0.00 0.33 0.30 78 1025.5
20181216121346 16 240 14.5 29.0 0.00 0.33 0.30 77 1025.6
20181216120309 16 235 11.3 29.0 0.00 0.33 0.30 75 1025.6
20181216115407 16 248 9.7 24.1 0.00 0.33 0.30 75 1025.8
20181216114353 16 325 12.9 27.4 0.00 0.33 0.30 74 1025.8
20181216113338 16 227 11.3 27.4 0.00 0.33 0.30 74 1025.8
20181216112323 16 302 8.0 19.3 0.00 0.33 0.30 75 1025.8
20181216111405 16 232 9.7 24.1 0.00 0.33 0.30 75 1025.7
20181216110347 16 292 9.7 20.9 0.00 0.33 0.30 76 1025.6
20181216105335 16 250 9.7 20.9 0.00 0.33 0.30 76 1025.5
20181216104314 16 250 8.0 20.9 0.00 0.33 0.30 76 1025.5
20181216103358 15 236 8.0 20.9 0.00 0.33 0.30 75 1025.4
20181216102342 15 277 6.4 17.7 0.00 0.33 0.30 78 1025.2
20181216101324 15 269 4.8 17.7 0.00 0.33 0.30 79 1025.1
20181216100306 15 288 6.4 16.1 0.00 0.33 0.30 79 1025.0
20181216095346 14 298 6.4 16.1 0.00 0.33 0.30 82 1024.7
20181216094331 14 296 6.4 17.7 0.00 0.33 0.30 85 1024.7
20181216093315 13 263 3.2 11.3 0.03 0.33 0.30 88 1024.6
20181216092300 13 292 1.6 11.3 0.03 0.33 0.30 89 1024.3
20181216091239 13 262 3.2 9.7 0.03 0.33 0.30 90 1024.1
20181216090321 13 267 4.8 14.5 0.03 0.33 0.30 91 1024.0
20181216085302 13 242 4.8 12.9 0.03 0.33 0.30 92 1023.8
20181216084246 13 263 4.8 11.3 0.00 0.33 0.30 93 1023.6
20181216083331 13 236 4.8 9.7 0.00 0.33 0.28 93 1023.4
20181216082312 13 241 4.8 12.9 0.00 0.33 0.28 94 1023.3
20181216081258 13 267 3.2 8.0 0.00 0.33 0.28 94 1023.1
20181216080240 13 246 4.8 9.7 0.00 0.33 0.28 94 1022.9
20181216075220 13 243 4.8 11.3 0.00 0.33 0.28 94 1022.8
20181216074304 13 216 4.8 14.5 0.00 0.33 0.28 94 1022.6
20181216073247 13 244 3.2 11.3 0.00 0.33 0.28 93 1022.4
20181216072233 13 239 4.8 11.3 0.00 0.33 0.28 93 1022.2
20181216071317 14 246 4.8 12.9 0.00 0.33 0.28 93 1022.1
20181216070256 14 264 4.8 11.3 0.00 0.33 0.28 94 1022.0
20181216065239 14 240 4.8 14.5 0.00 0.33 0.28 94 1022.0
20181216064223 14 248 4.8 12.9 0.00 0.33 0.28 94 1022.0
20181216063206 14 259 4.8 14.5 0.00 0.33 0.28 94 1021.9
20181216062248 14 273 4.8 14.5 0.00 0.33 0.28 94 1021.7
20181216061231 14 219 4.8 14.5 0.00 0.33 0.28 94 1021.7
20181216060209 14 253 4.8 12.9 0.00 0.33 0.28 94 1021.7
20181216055150 14 257 3.2 11.3 0.00 0.33 0.28 94 1021.5
20181216054237 14 236 3.2 8.0 0.00 0.33 0.28 94 1021.2
20181216053217 14 257 4.8 12.9 0.00 0.33 0.28 94 1021.4
20181216052156 14 190 3.2 9.7 0.03 0.33 0.28 94 1021.4
20181216051142 14 236 4.8 16.1 0.03 0.33 0.28 94 1021.5
20181216050217 14 282 3.2 11.3 0.03 0.33 0.28 94 1021.5
20181216045159 14 270 4.8 16.1 0.05 0.33 0.28 94 1021.5
20181216044131 14 252 1.6 4.8 0.08 0.33 0.28 93 1021.4
20181216043227 14 240 4.8 17.7 0.08 0.33 0.28 94 1021.4
20181216042207 14 300 11.3 20.9 0.10 0.30 0.25 93 1021.4
20181216041151 14 287 12.9 27.4 0.15 0.30 0.25 93 1021.2
20181216040131 15 321 14.5 35.4 0.18 0.30 0.25 93 1020.9
20181216035216 16 273 9.7 19.3 0.18 0.25 0.23 93 1020.8
20181216034158 16 260 9.7 22.5 0.15 0.23 0.20 93 1020.3
20181216033141 15 258 6.4 20.9 0.15 0.23 0.20 93 1020.2
20181216032127 16 234 9.7 24.1 0.15 0.20 0.18 93 1020.4
20181216031208 16 217 8.0 17.7 0.13 0.15 0.13 92 1020.4
20181216030149 16 221 9.7 24.1 0.08 0.13 0.08 92 1020.3
20181216025134 16 275 8.0 17.7 0.05 0.08 0.05 92 1020.5
20181216024216 16 246 11.3 25.7 0.05 0.08 0.05 91 1020.7
20181216023157 16 173 9.7 30.6 0.05 0.08 0.05 90 1020.7
20181216022142 16 271 9.7 24.1 0.03 0.05 0.03 89 1020.6
20181216021125 16 196 11.3 29.0 0.00 0.05 0.00 89 1020.8
20181216020208 16 182 9.7 22.5 0.00 0.05 0.00 89 1020.8
20181216015151 16 114 9.7 25.7 0.00 0.05 0.00 89 1020.8
20181216014134 16 248 9.7 19.3 0.00 0.05 0.00 89 1021.0
20181216013117 16 219 11.3 24.1 0.00 0.05 0.00 90 1021.0
20181216012158 16 219 6.4 17.7 0.00 0.05 0.00 90 1020.9
20181216011138 16 124 9.7 22.5 0.00 0.05 0.00 90 1021.2
20181216010118 16 170 6.4 22.5 0.00 0.05 0.00 90 1021.5
20181216005105 16 226 6.4 24.1 0.00 0.05 0.00 90 1021.6
20181216004147 16 140 6.4 27.4 0.00 0.05 0.00 90 1021.8
20181216003132 16 223 8.0 25.7 0.00 0.05 0.00 90 1022.1
20181216002113 16 241 8.0 20.9 0.00 0.05 0.00 90 1022.2
20181216001150 16 148 8.0 25.7 0.00 0.05 0.00 91 1022.3
20181216000132 15 173 9.7 24.1 0.00 0.05 0.00 91 1022.4
20181215235116 15 138 9.7 22.5 0.00 0.05 0.05 91 1022.6
20181215234158 15 160 9.7 17.7 0.00 0.05 0.05 91 1022.8
20181215233140 15 115 9.7 24.1 0.00 0.05 0.05 92 1023.0
20181215232126 15 181 8.0 24.1 0.00 0.05 0.05 92 1023.2
20181215231109 15 191 8.0 22.5 0.00 0.05 0.05 92 1023.4
20181215230147 15 115 8.0 27.4 0.00 0.05 0.05 92 1023.4
20181215225131 15 168 8.0 17.7 0.00 0.05 0.05 91 1023.4
20181215224116 15 238 8.0 22.5 0.00 0.05 0.05 91 1023.5
20181215223057 15 237 8.0 19.3 0.00 0.05 0.05 92 1023.6
20181215222138 15 143 6.4 16.1 0.00 0.05 0.05 92 1023.7
20181215221122 15 109 8.0 27.4 0.00 0.05 0.05 92 1023.4
20181215220104 15 215 8.0 29.0 0.00 0.05 0.05 92 1023.6
20181215215045 15 138 6.4 16.1 0.00 0.05 0.05 92 1023.5
20181215214127 15 167 8.0 17.7 0.00 0.05 0.05 93 1023.6
20181215213108 15 179 6.4 20.9 0.00 0.05 0.05 93 1023.8
20181215212053 15 205 8.0 20.9 0.00 0.05 0.05 93 1023.9
20181215211135 14 216 6.4 19.3 0.00 0.05 0.05 93 1023.9
20181215210118 14 129 4.8 16.1 0.00 0.05 0.05 93 1024.1
20181215205101 14 175 4.8 16.1 0.00 0.05 0.05 93 1024.2
20181215204049 14 143 8.0 20.9 0.00 0.05 0.05 93 1024.3
20181215203131 14 146 6.4 16.1 0.00 0.05 0.05 94 1024.5
20181215202113 14 149 6.4 19.3 0.00 0.05 0.05 94 1024.7
20181215201057 14 131 9.7 16.1 0.00 0.05 0.05 94 1024.7
20181215200042 14 180 8.0 20.9 0.00 0.05 0.05 94 1024.9
20181215195128 14 128 9.7 19.3 0.03 0.05 0.05 94 1025.0
20181215194109 14 117 9.7 22.5 0.03 0.05 0.05 94 1025.1
20181215193053 14 157 4.8 17.7 0.03 0.05 0.05 93 1025.3
20181215192128 14 133 4.8 17.7 0.03 0.05 0.05 93 1025.4
20181215191113 14 117 3.2 9.7 0.03 0.05 0.05 93 1025.4
20181215190055 14 188 6.4 12.9 0.03 0.05 0.05 93 1025.3
20181215185036 14 142 4.8 12.9 0.00 0.03 0.03 93 1025.3
20181215184119 14 151 6.4 16.1 0.00 0.03 0.03 93 1025.2
20181215183105 14 150 6.4 14.5 0.00 0.03 0.03 93 1025.2
20181215182046 13 155 4.8 17.7 0.00 0.03 0.03 93 1025.2
20181215181027 13 108 6.4 16.1 0.00 0.03 0.03 93 1025.1
20181215180108 13 145 4.8 16.1 0.00 0.03 0.03 92 1025.2
20181215175050 13 142 3.2 12.9 0.00 0.03 0.03 92 1025.4
20181215174035 13 273 3.2 11.3 0.00 0.03 0.03 93 1025.3
20181215173020 13 179 4.8 14.5 0.00 0.03 0.03 93 1025.2
20181215172052 13 206 4.8 14.5 0.00 0.03 0.03 93 1025.2
20181215171040 13 157 4.8 11.3 0.00 0.03 0.03 92 1025.3
20181215170024 13 221 4.8 16.1 0.00 0.03 0.03 92 1025.4
20181215165101 13 128 4.8 12.9 0.00 0.03 0.03 93 1025.4
20181215164047 14 135 4.8 11.3 0.03 0.03 0.03 93 1025.5
20181215163027 14 214 6.4 16.1 0.03 0.03 0.03 93 1025.6
20181215162010 14 292 6.4 14.5 0.03 0.03 0.03 93 1025.6